Flag for Austria Weather past 2 weeks in Leonding, Upper Austria, Austria

Now
93 °F

Passing clouds.


Feels Like: 90 °F
Forecast: 58 / 67 °F
Wind: 6 mph from North

Location: Linz / Hoersching-Flughafen

Current Time: Sep 1, 2015 at 3:16:28 PM

Latest Report: Sep 1, 2015 at 2:50 PM


Visibility: N/A

Pressure: 29.74 "Hg

Humidity: 21%

Dew point: 48 °F

Location of LeondingLocation

Historic Weather in Leonding — Graph

°F

Leonding temperature yesterday

Maximum temperature yesterday: 97 °F (at 4:50 PM)
Minimum temperature yesterday: 63 °F (at 5:50 AM)
Average temperature yesterday: 79 °F

Past Weeks' High & Low Weather Summary

 TemperatureHumidityPressure
High97 °F (Aug 31, 4:50 PM)100% (Aug 20, 9:20 PM)30.27 "Hg (Aug 20, 9:20 PM)
Low45 °F (Aug 26, 6:20 AM)16% (Aug 26, 4:20 PM)29.71 "Hg (Aug 24, 5:50 PM)
Average69 °F63%30.03 "Hg
* Reported Aug 17 1:20 PM — Sep 1 1:50 PM, Leonding, Weather by CustomWeather, © 2015

Note: Actual official high and low records may vary slightly from our data, if they occured in-between our weather recording intervals... More about our weather records

Advertising

Leonding weather history for previous 24 hours

 ConditionsComfort  
Time TempWeatherWind HumidityBarometerVisibility
1:50 PM
Tue, Sep 1
91 °FPassing clouds.5 mph24%29.77 "HgN/A
1:20 PM90 °FPassing clouds.3 mph27%29.80 "HgN/A
12:50 PM88 °FPassing clouds.2 mph31%29.80 "HgN/A
12:20 PM86 °FSunny.2 mph35%29.83 "Hg10 mi
11:50 AM84 °FPassing clouds.3 mph37%29.83 "HgN/A
11:20 AM82 °FSunny.3 mph42%29.86 "Hg10 mi
10:50 AM81 °FSunny.2 mph48%29.86 "Hg10 mi
10:20 AM77 °FSunny.2 mph54%29.86 "Hg10 mi
9:50 AM75 °FSunny.1 mph57%29.86 "Hg10 mi
9:20 AM73 °FSunny.1 mph61%29.86 "Hg10 mi
8:50 AM73 °FSunny.2 mph61%29.86 "Hg10 mi
8:20 AM70 °FSunny.1 mph69%29.86 "Hg10 mi
7:50 AM68 °FSunny.1 mph73%29.89 "Hg10 mi
7:20 AM64 °FSunny.2 mph78%29.89 "Hg10 mi
6:50 AM63 °FClear.2 mph83%29.89 "Hg10 mi
6:20 AM64 °FClear.2 mph78%29.89 "Hg10 mi
5:20 AM64 °FClear.2 mph73%29.89 "Hg10 mi
4:50 AM66 °FClear.3 mph73%29.89 "Hg10 mi
4:20 AM68 °FClear.5 mph69%29.89 "Hg10 mi
3:50 AM68 °FClear.2 mph69%29.89 "Hg10 mi
3:20 AM68 °FMild.3 mph73%29.89 "HgN/A
2:50 AM72 °FMild.6 mph65%29.89 "HgN/A
2:20 AM72 °FMild.6 mph65%29.89 "HgN/A
1:50 AM73 °FMild.8 mph61%29.89 "HgN/A
1:20 AM73 °FMild.8 mph61%29.89 "HgN/A
12:50 AM73 °FMild.7 mph61%29.89 "HgN/A
11:50 PM
Mon, Aug 31
75 °FMild.8 mph57%29.89 "HgN/A
11:20 PM75 °FClear.9 mph57%29.89 "Hg10 mi
10:50 PM73 °FClear.7 mph53%29.89 "Hg10 mi
10:20 PM73 °FClear.2 mph53%29.86 "Hg10 mi
9:50 PM77 °FClear.2 mph47%29.86 "Hg10 mi
9:20 PM79 °FClear.1 mph42%29.86 "Hg10 mi
8:50 PM82 °FClear.2 mph37%29.86 "Hg10 mi
8:20 PM82 °FSunny.1 mph37%29.86 "Hg10 mi
7:50 PM86 °FSunny.2 mph33%29.86 "Hg10 mi
7:20 PM90 °FSunny.6 mph29%29.86 "Hg10 mi
6:50 PM93 °FPassing clouds.5 mph23%29.86 "HgN/A
6:20 PM95 °FPassing clouds.2 mph19%29.86 "HgN/A
5:50 PM95 °FPassing clouds.5 mph18%29.86 "HgN/A
5:20 PM95 °FPassing clouds.2 mph19%29.86 "HgN/A
4:50 PM97 °FPassing clouds.3 mph19%29.86 "HgN/A
4:20 PM95 °FPassing clouds.3 mph22%29.89 "HgN/A
3:50 PM95 °FPassing clouds.2 mph25%29.89 "HgN/A
3:20 PM93 °FPassing clouds.5 mph28%29.92 "HgN/A
Weather by CustomWeather, © 2015

See weather overviewHow to use our weather pages